Location: Normandy Village
(37.8755°N, 122.2655°W)
Time: 22:38:28
(UTC+00:00)

Meteor 1-27 Rocket - Pass Details

Date: 22 September 2019
Orbit: 829 x 911 km, 81.3° (Epoch: 13 October)

Event Time Altitude Azimuth Distance (km) Brightness Sun altitude
Exits shadow 12:31:27 26° 233° (SW) 1,701 4.7 -17.5°
Maximum altitude 12:34:10 40° 284° (WNW) 1,288 4.2 -16.9°
Drops below altitude 10° 12:39:35 10° 353° (N) 2,537 6.3 -15.9°
Sets 12:42:10 0° 1° (N) 3,466 7.1 -15.4°
